www.pogodaiklimat.ru

Погода и климат >> Архив погоды >> Аргентина >> Серес


ПОГОДА в Сересе

  • Прогноз погоды в Сересе
  • Монитор погоды в Сересе

АРХИВ ПОГОДЫ в Сересе

Время (UTC), дата Ветер
(напр.,м/с)
 
Видим.   Явления Облачность Т
(С)
Тd
(С)
f
(%)
Тe
(С)
Тes
(С)
Комфортность P
(гПа)
Po
(гПа)
Тmin
(С)
Tmax
(С)
R
(мм)
R24
(мм)
S
(см)
12 10.08 С 1 4000 м в посл. час туман туман ясно +3.0 +2.0 93 +1 +3 1024.2 1013.2 0.0 +6.6
15 10.08 С 7 20 км ясно +14.2 +0.7 40 +12 +16 1023.7 1012.9
18 10.08 С 4 10 км дым ясно +18.0 +0.4 30 +18 +23 1021.5 1010.8
21 10.08 С 1 10 км дым ясно +16.6 +2.0 37 +18 +18 1019.3 1008.6
00 11.08 штиль 0 8000 м дым ясно +8.0 +2.3 67 +7 +7 1019.0 1008.1 +3.0 +18.5
03 11.08 С 3 8000 м дым ясно +8.5 +3.2 69 +6 +6 1017.8 1007.2
06 11.08 С 1 15 км ясно +8.0 +3.4 73 +7 +7 1016.6 1006.0
09 11.08 С 1 6000 м дымка ясно +6.7 +4.9 88 +6 +6 1014.6 1004.0
12 11.08 штиль 0 15 км ясно +9.1 +7.0 87 +8 +11 1016.2 1005.4 +5.9 +10.2
15 11.08 С 4 15 км ясно +17.1 +8.2 56 +17 +23 1015.3 1004.8
18 11.08 С 7 8000 м мгла 1/0
[Cs]
+21.2 +7.1 40 +22 +25 комфорт 1010.8 1000.4
21 11.08 СВ 3 8000 м мгла 1/0
[Ci fib]
+19.2 +8.6 50 +20 +21 1009.1 998.6
00 12.08 СВ 1 15 км ясно +12.0 +8.4 79 +12 +12 1012.7 1002.0 +9.1 +21.2
03 12.08 штиль 0 15 км ясно +9.7 +7.4 86 +9 +9 1013.8 1003.3
06 12.08 ЮВ 1 8000 м дымка ясно +10.2 +7.7 84 +10 +10 1015.8 1005.3
09 12.08 ЮЗ 1 8000 м дымка ясно +7.6 +6.1 90 +7 +7 1014.6 1004.0
12 12.08 ЮЗ 3 6000 м дымка ясно +9.7 +7.4 86 +8 +9 1019.8 1009.2 +7.2 +12.0
15 12.08 Ю 12 6000 м пыльный позёмок ясно +17.6 +3.3 38 +16 +16 1022.1 1011.4
18 12.08 Ю 12 8000 м пыльный позёмок ясно +20.2 -0.6 25 +19 +19 1023.8 1013.2
21 12.08 Ю 7 10 км пыльный позёмок ясно +17.8 +2.1 35 +17 +17 1025.7 1014.9
00 13.08 Ю 4 15 км ясно +11.2 +2.5 55 +9 +9 1028.8 1018.0 +7.2 +20.2
03 13.08 Ю 3 15 км ясно +8.4 +3.6 72 +6 +6 1031.0 1020.4
06 13.08 Ю 1 15 км ясно +5.8 +2.4 79 +5 +5 1032.6 1021.8
09 13.08 Ю 4 15 км ясно +4.6 +1.6 81 0 0 1032.8 1022.0
12 13.08 Ю 4 15 км ясно +5.2 +1.2 75 +1 +2 1035.7 1024.8 +3.4 +11.2
15 13.08 ЮВ 4 15 км ясно +12.2 +0.9 46 +11 +17 1037.4 1026.5
18 13.08 Ю 4 15 км ясно +15.2 -0.3 35 +14 +20 1034.6 1023.7
21 13.08 ЮВ 4 15 км 3/0
[Ci fib]
+13.2 +1.1 44 +12 +12 1034.5 1023.6
00 14.08 ЮВ 1 15 км ясно +6.9 -0.6 59 +6 +6 1035.5 1024.5 +5.2 +15.4
03 14.08 ЮВ 3 15 км ясно +4.2 -1.9 64 +1 +1 1036.4 1025.4
06 14.08 ЮВ 3 15 км ясно +2.2 -1.1 79 -2 -2 1035.4 1024.5
09 14.08 ЮВ 1 15 км 1/0
[Ci]
-0.6 -1.8 92 -3 -3 1033.1 1022.1
12 14.08 СВ 3 15 км 4/0
[Ci sp]
+4.7 +0.3 73 +2 +3 1033.8 1022.8 -0.8 +6.9
15 14.08 С 4 15 км 3/0
[Ci sp]
+11.2 +0.7 48 +9 +16 1033.1 1022.1
18 14.08 С 9 5000 м дым 8/0
[Cs]
+14.8 -4.3 26 +13 +13 1027.6 1016.8
21 14.08 С 7 5000 м дым 8/0
[Cs]
+13.4 -4.5 29 +11 +12 1025.5 1014.6
00 15.08 С 3 6000 м дым 8/0
[Cs]
+9.2 -1.0 49 +8 +8 1025.2 1014.2 +4.7 +15.4
03 15.08 СВ 1 5000 м дымка 8/0
[Cs]
+4.8 +0.4 73 +4 +4 1024.9 1014.1
06 15.08 СВ 4 5000 м дымка 8/0
[Cs]
+7.1 +1.7 68 +4 +4 1022.1 1011.3
09 15.08 СВ 1 5000 м дымка 8/0
[Cs]
+4.0 +1.2 82 +3 +3 1021.3 1010.5
12 15.08 С 1 6000 м дымка 10/0
[Cs]
+5.4 +2.5 82 +4 +6 1022.1 1011.2 +2.5 +9.2
15 15.08 С 1 6000 м дым 10/0
[Cs]
+15.1 +3.6 46 +16 +26 1021.8 1011.0
18 15.08 СВ 3 5000 м дым 9/0
[Cs]
+19.0 +2.2 33 +20 +26 1018.5 1008.0
21 15.08 В 1 5000 м дым 9/0
[Cs]
+19.0 +2.8 34 +20 +21 1017.6 1006.9
00 16.08 штиль 0 6000 м дым 9/0
[Ac As Cs]
+12.0 +5.1 63 +12 +12 1017.9 1007.2 +5.4 +20.2
03 16.08 З 1 6000 м дым 10/0
[Cs]
+10.3 +4.8 69 +10 +10 1016.9 1006.4
06 16.08 штиль 0 6000 м дымка 10/0
[Cs]
+8.7 +5.2 79 +8 +8 1015.7 1005.2
09 16.08 СВ 1 6000 м дымка 1/0
[Ci fib]
+7.4 +5.2 86 +6 +6 1012.5 1002.0
12 16.08 СВ 1 6000 м дымка 9/0
[Cs]
+10.6 +8.4 86 +10 +12 1012.9 1002.2 +7.2 +12.0
15 16.08 С 4 8000 м дым 9/0
[Cs]
+22.2 +13.5 58 +25 +31 комфорт 1011.0 1000.5
18 16.08 СВ 3 4000 м дым 8/0
[Cs]
+27.6 +14.1 44 +30 +37 жарко 1008.1 997.7
21 16.08 В 1 4000 м дым 5/0
[Cs]
+25.0 +15.5 56 +28 +29 жарко 1005.9 995.4
00 17.08 В 3 8000 м дым 5/0
[Cs]
+19.0 +14.9 77 +21 +21 комфорт 1007.2 996.8 +10.6 +28.0
03 17.08 СВ 1 6000 м дым 3/0
[Cs]
+18.3 +14.9 81 +20 +20 1006.4 996.1
06 17.08 СВ 1 6000 м дымка ясно +18.6 +15.4 82 +21 +21 комфорт 1004.3 994.2
09 17.08 С 1 10 км дымка ясно +16.6 +14.5 87 +17 +17 1003.1 992.9

 

Местоположение метеостанции Серес (Аргентина): широта -29.88 долгота -61.95 высота над уровнем моря 88 м.

В архиве по умолчанию представлена погода в Сересе за последнюю неделю. Архивные данные за месяц целиком и за предыдущие месяцы, начиная с января 2011 года, Вы можете получить, выбрав интересующий диапазон дат из раскрывающегося списка и нажав кнопку "Ввод!".


*Определитесь, кто Вы:
робот инопланетянин человек

Внимание! Время в таблицах - всемирное. Для получения местного времени необходимо прибавить поправку, которая равна -3 ч.

Смотрите также архив погоды в соседних городах и на ближайших метеорологических станциях:

Погода в Вилла де Мария дель Рио Секо (Аргентина) (167 км)
Погода в Санта-Фе (Аргентина) (230 км)
Погода в Реконкисте (Аргентина) (231 км)
Погода в Паране (Аргентина) (254 км)
Погода в Кордове (Аргентина) (269 км)
Погода в Пиларе (Аргентина) (271 км)
Погода в Маркос Хуарес (Аргентина) (314 км)
Погода в Сантьяго-дель-Эстеро (Аргентина) (329 км)
Погода в Росарио (Аргентина) (355 км)
Погода в Пресиденсиа-Роке-Саэнс-Пеньи (Аргентина) (379 км)

Пояснения к столбцам:

Ветер - указаны скорость ветра в м/с - средняя за 10 мин, порывы в срок и между сроками (в фигурных скобках) и направление, откуда дует ветер: С - северный, СВ - северо-восточный, В - восточный, ЮВ - юго-восточный, Ю - южный, ЮЗ - юго-западный, З - западный, СЗ - северо-западный.
Видимость - горизонтальная дальность видимости в метрах или километрах. При видимости от 1 до 10 км при отсутствии осадков обычно наблюдается дымка, при ухудшении видимости до 1 км и менее - туман. В сухую погоду видимость может ухудшаться дымом, пылью или мглою.
Явления - указаны атмосферные явления, наблюдавшиеся в срок или в последний час перед сроком; фигурными скобками обозначены явления, наблюдавшиеся между сроками (за 1-3 часа до срока); квадратными скобками обозначены град или гололедные отложения с указанием их диаметра в мм.
Облачность - указаны через наклонную черту общая и нижняя облачность в баллах и высота нижней границы облаков в метрах; квадратными скобками обозначены формы облаков: Ci - перистые, Cs - перисто-слоистые, Cc - перисто-кучевые, Ac - высококучевые, As - высокослоистые, Sc - слоисто-кучевые, Ns - слоисто-дождевые, Cu - кучевые, Cb - кучево-дождевые. Подробнее классификацию облаков см. в Атласе облаков (PDF).
T - Температура воздуха - температура, измеренная на высоте 2 м над землей.
Td - Температура точки росы - температура, при понижении до которой содержащийся в воздухе водяной пар достигнет насыщения.
f - Относительная влажность воздуха - влажноcть воздуха, измеренная на высоте 2 м над землей.
Te - Эффективная температура - температура, которую ощущает одетый по сезону человек в тени. Характеристика душности погоды. При расчете учитывается влияние влажности воздуха и скорости ветра на теплоощущения человека.
Tes - Эффективная температура на солнце - температура, которую ощущает человек, с поправкой на солнечный нагрев. Характеристика знойности погоды. Зависит от высоты солнца над горизонтом, облачности и скорости ветра. Ночью, в пасмурную погоду, а также при ветре 12 м/с и более поправка равна нулю.
P - Атмосферное давление - приведенное к уровню моря атмосферное давление.
Po - Атмосферное давление - измеренное на уровне метеостанции атмосферное давление.
Tmin - Минимальная температура - минимум температуры воздуха на высоте 2 м над землей.
Tmax - Максимальная температура - максимум температуры воздуха на высоте 2 м над землей.
R - Количество осадков - Количество выпавших осадков за период времени, мм. При наведении курсора мыши на число - период времени, за который выпало указанное количество осадков.
R24 - Количество осадков - Количество выпавших осадков за 24 часа, мм.
S - Снежный покров - Высота снежного покрова, см. При наведении курсора мыши на число - состояние снежного покрова и степень покрытия местности в баллах.